Starlink 30074

operational
NORAD ID: 57508 Int'l Des: 2023-113 Owner: SPXS Country: US Constellation: starlink
LEOCIRCULAR

About Starlink 30074

Description loading...

Live Position

Loading 3D Globe...

Upcoming Passes

Altitude History

Altitude vs Time

uPlot chart will show altitude changes over time

Two-Line Element Set

1 57508U 23113P 25353.99063660 -.00000151 00000-0 38987-5 0 9990
2 57508 43.0047 90.1984 0001383 274.4251 85.6433 15.02531905131461
Epoch: Dec 19, 2025 • Age: 17 hours

Current Status

Altitude 571.2 km
Velocity 7.58 km/s
Sub-Earth Point -42.33°S, 0.19°W
Launch Date Aug 7, 2023
Age 2.3 years
Type internet

Technical Details

Classification Payload
Mass 730.00 kg
Dry Mass 700.00 kg
Total Mass 730.00 kg
Length 0.30 m
Diameter 4.10 m
Span 29.00 m
Shape Box + pan
Manufacturer SPXS
Bus Type Starlink V2M
Phase Status In Orbit
Owner/State SPXS/US

Large Constellations

Loading constellations...